DAL362 KJFK-KMKE

Flight info

Callsign DAL362
Flight time N/A
Altitude 34000
Route DEEZZ6 CANDR J60 DJB CRL PEGEE GETCH LYSTR SUDDS
Aircraft A320/M-SDE3FGHIRWY/LB1

Departure

Time N/A
Airport John F. Kennedy International Airport (KJFK)

Arrival

Time 2026-04-27 23:36
Airport General Mitchell International Airport (KMKE)
Time Latitude Longitude Altitude Speed Heading
2026-04-27 23:18 43.16120 -86.54236 27499 ft 407 kts 264°
2026-04-27 23:18 43.16055 -86.58105 26456 ft 404 kts 264°
2026-04-27 23:18 43.15996 -86.61416 25662 ft 399 kts 264°
2026-04-27 23:19 43.15928 -86.65180 24870 ft 392 kts 264°
2026-04-27 23:19 43.15861 -86.68875 24085 ft 386 kts 264°
2026-04-27 23:19 43.15794 -86.72523 23322 ft 380 kts 265°
2026-04-27 23:19 43.15725 -86.76116 22489 ft 375 kts 265°
2026-04-27 23:20 43.15655 -86.79652 21779 ft 368 kts 265°
2026-04-27 23:20 43.15585 -86.83131 21108 ft 362 kts 265°
2026-04-27 23:20 43.15515 -86.86556 20459 ft 358 kts 265°
2026-04-27 23:20 43.15445 -86.89938 19843 ft 353 kts 265°
2026-04-27 23:21 43.15371 -86.93277 19256 ft 349 kts 265°
2026-04-27 23:21 43.15299 -86.96583 18696 ft 345 kts 265°
2026-04-27 23:21 43.15229 -86.99851 18148 ft 341 kts 265°
2026-04-27 23:21 43.15166 -87.02786 17403 ft 342 kts 265°
2026-04-27 23:22 43.15095 -87.06053 16658 ft 342 kts 265°
2026-04-27 23:22 43.15023 -87.09294 16057 ft 339 kts 264°
2026-04-27 23:22 43.14951 -87.12512 15431 ft 337 kts 264°
2026-04-27 23:22 43.14878 -87.15716 14798 ft 336 kts 264°
2026-04-27 23:23 43.14803 -87.18913 14154 ft 336 kts 264°
2026-04-27 23:23 43.14726 -87.22118 13476 ft 338 kts 263°
2026-04-27 23:23 43.14649 -87.25336 12723 ft 338 kts 263°
2026-04-27 23:23 43.14570 -87.28547 12014 ft 337 kts 263°
2026-04-27 23:24 43.14489 -87.31748 11296 ft 335 kts 263°
2026-04-27 23:24 43.14409 -87.34935 10567 ft 335 kts 263°
2026-04-27 23:24 43.14331 -87.38083 10164 ft 324 kts 262°
2026-04-27 23:24 43.14258 -87.41117 9774 ft 314 kts 262°
2026-04-27 23:25 43.14196 -87.44059 9384 ft 304 kts 262°
2026-04-27 23:25 43.14161 -87.46921 8970 ft 298 kts 266°
2026-04-27 23:25 43.14410 -87.49726 8563 ft 294 kts 271°
2026-04-27 23:25 43.14694 -87.52462 8158 ft 287 kts 272°
2026-04-27 23:26 43.14978 -87.55138 7751 ft 281 kts 272°
2026-04-27 23:26 43.15256 -87.57757 7355 ft 274 kts 271°
2026-04-27 23:26 43.15526 -87.60316 6963 ft 269 kts 271°
2026-04-27 23:26 43.15787 -87.62821 6580 ft 263 kts 271°
2026-04-27 23:27 43.16041 -87.65280 6207 ft 258 kts 271°
2026-04-27 23:27 43.16275 -87.67587 5825 ft 254 kts 275°
2026-04-27 23:27 43.16518 -87.69999 5421 ft 250 kts 271°
2026-04-27 23:27 43.16754 -87.72334 5032 ft 245 kts 271°
2026-04-27 23:28 43.16987 -87.74632 4642 ft 242 kts 271°
2026-04-27 23:28 43.17225 -87.76869 4247 ft 240 kts 272°
2026-04-27 23:28 43.17474 -87.79112 3840 ft 237 kts 271°
2026-04-27 23:28 43.17709 -87.81336 3450 ft 235 kts 271°
2026-04-27 23:29 43.17942 -87.83543 3088 ft 232 kts 269°
2026-04-27 23:29 43.17972 -87.85642 3015 ft 207 kts 251°
2026-04-27 23:29 43.17322 -87.87193 3015 ft 178 kts 215°
2026-04-27 23:29 43.16229 -87.87682 3013 ft 164 kts 180°
2026-04-27 23:30 43.15111 -87.87331 3016 ft 169 kts 162°
2026-04-27 23:30 43.14063 -87.86572 3017 ft 170 kts 164°
2026-04-27 23:30 43.12972 -87.86348 3020 ft 152 kts 190°
2026-04-27 23:30 43.11941 -87.86525 3021 ft 148 kts 189°
2026-04-27 23:31 43.10921 -87.86700 3022 ft 147 kts 189°
2026-04-27 23:31 43.09914 -87.86874 3023 ft 145 kts 189°
2026-04-27 23:31 43.08934 -87.87041 3044 ft 135 kts 191°
2026-04-27 23:31 43.08050 -87.87192 3027 ft 123 kts 191°
2026-04-27 23:32 43.07212 -87.87336 2920 ft 119 kts 191°
2026-04-27 23:32 43.06398 -87.87477 2777 ft 117 kts 190°
2026-04-27 23:32 43.05595 -87.87615 2643 ft 115 kts 190°
2026-04-27 23:32 43.04798 -87.87752 2488 ft 116 kts 190°
2026-04-27 23:33 43.04002 -87.87889 2344 ft 115 kts 189°
2026-04-27 23:33 43.03208 -87.88025 2196 ft 115 kts 189°
2026-04-27 23:33 43.02419 -87.88160 2046 ft 114 kts 189°
2026-04-27 23:33 43.01636 -87.88295 1907 ft 113 kts 193°
2026-04-27 23:34 43.00851 -87.88430 1760 ft 114 kts 186°
2026-04-27 23:34 43.00066 -87.88564 1593 ft 115 kts 184°
2026-04-27 23:34 42.99267 -87.88701 1435 ft 116 kts 186°
2026-04-27 23:34 42.98465 -87.88838 1284 ft 114 kts 185°
2026-04-27 23:35 42.97682 -87.88973 1162 ft 113 kts 184°
2026-04-27 23:35 42.96871 -87.89108 1045 ft 114 kts 186°
2026-04-27 23:35 42.96076 -87.89256 824 ft 114 kts 182°
2026-04-27 23:35 42.95307 -87.89379 688 ft 107 kts 184°
2026-04-27 23:36 42.94722 -87.89474 683 ft 59 kts 189°
2026-04-27 23:36 42.94435 -87.89529 684 ft 35 kts 186°
2026-04-27 23:36 42.94201 -87.89575 682 ft 33 kts 193°
2026-04-27 23:36 42.94054 -87.89693 684 ft 12 kts 235°
2026-04-27 23:37 42.94032 -87.89759 688 ft 6 kts 256°
2026-04-27 23:37 42.94032 -87.89812 688 ft 6 kts 275°
2026-04-27 23:37 42.94054 -87.89856 686 ft 6 kts 331°
2026-04-27 23:37 42.94094 -87.89872 683 ft 6 kts 352°
2026-04-27 23:38 42.94144 -87.89880 687 ft 10 kts 346°
2026-04-27 23:38 42.94237 -87.89909 684 ft 14 kts 350°
2026-04-27 23:38 42.94336 -87.89934 684 ft 15 kts 349°
2026-04-27 23:38 42.94422 -87.89954 684 ft 10 kts 350°
2026-04-27 23:39 42.94493 -87.89968 685 ft 10 kts
2026-04-27 23:39 42.94540 -87.89904 687 ft 10 kts 62°
2026-04-27 23:39 42.94574 -87.89823 688 ft 9 kts 59°
2026-04-27 23:39 42.94617 -87.89756 684 ft 9 kts 29°
2026-04-27 23:40 42.94680 -87.89737 684 ft 9 kts
2026-04-27 23:40 42.94752 -87.89725 688 ft 13 kts
2026-04-27 23:40 42.94835 -87.89711 684 ft 10 kts
2026-04-27 23:40 42.94903 -87.89704 685 ft 7 kts 355°
2026-04-27 23:41 42.94950 -87.89729 683 ft 7 kts 320°
2026-04-27 23:41 42.94975 -87.89785 686 ft 7 kts 272°
2026-04-27 23:41 42.94943 -87.89823 685 ft 7 kts 208°
2026-04-27 23:41 42.94916 -87.89842 685 ft 2 kts 206°
2026-04-27 23:42 42.94907 -87.89849 688 ft 1 kts 207°
2026-04-27 23:42 42.94906 -87.89850 687 ft 0 kts 207°